This demonstration page uses our WeatherBlox Daily Observations layout. Learn more.

38.89511, -77.03637

Hourly Observations for December 12, 2018

Temp ( °F °C ) Dew Point ( °F °C ) Humidity (%) Winds ( mph kmh ) Pressure ( in mb ) Visibility ( mi km ) Precip ( " mm )
12:52 am 00:52 Mostly Cloudy 35 1.7 27 -2.8 72 72 SSW 6 9 30.06 1018 10 16.09344 0 0
1:52 am 01:52 Mostly Clear 34 1.1 22 -5.6 61 61 SW 6 9 30.06 1018 10 16.09344 0 0
2:52 am 02:52 Mostly Clear 34 1.1 26 -3.3 73 73 SSW 3 6 30.09 1019 10 16.09344 0 0
3:52 am 03:52 Mostly Clear 32 0 22 -5.6 66 66 Calm 30.09 1019 10 16.09344 0 0
4:52 am 04:52 Mostly Cloudy 34 1.1 23 -5 64 64 SE 5 7 30.12 1020 10 16.09344 0 0
5:52 am 05:52 Cloudy 34 1.1 24 -4.4 67 67 S 3 6 30.15 1021 10 16.09344 0 0
6:52 am 06:52 Mostly Cloudy 35 1.7 23 -5 61 61 S 3 6 30.18 1022 10 16.09344 0 0
7:52 am 07:52 Mostly Sunny 35 1.7 22 -5.6 59 59 WSW 3 6 30.18 1022 10 16.09344 0 0
8:52 am 08:52 Partly Cloudy 37 2.8 25 -3.9 62 62 S 5 7 30.21 1023 10 16.09344 0 0
9:52 am 09:52 Partly Cloudy 39 3.9 27 -2.8 62 62 S 5 7 30.21 1023 10 16.09344 0 0
10:52 am 10:52 Mostly Cloudy 45 7.2 24 -4.4 44 44 VRB 3 6 30.21 1023 10 16.09344 0 0
11:52 am 11:52 Mostly Cloudy 44 6.7 23 -5 43 43 E 3 6 30.18 1022 10 16.09344 0 0
12:52 pm 12:52 Cloudy 46 7.8 24 -4.4 42 42 E 3 6 30.15 1021 10 16.09344 0 0
1:52 pm 13:52 Cloudy 46 7.8 23 -5 40 40 Calm 30.15 1021 10 16.09344 0 0
2:52 pm 14:52 Cloudy 45 7.2 26 -3.3 48 48 S 8 13 30.15 1021 10 16.09344 0 0
3:52 pm 15:52 Cloudy 45 7.2 24 -4.4 44 44 S 8 13 30.18 1022 10 16.09344 0 0
4:52 pm 16:52 Cloudy 44 6.7 24 -4.4 45 45 S 7 11 30.18 1022 10 16.09344 0 0
5:52 pm 17:52 Cloudy 44 6.7 25 -3.9 47 47 SSW 9 15 30.18 1022 10 16.09344 0 0
6:52 pm 18:52 Cloudy 41 5 26 -3.3 55 55 SSE 10 17 30.18 1022 10 16.09344 0 0
7:52 pm 19:52 Mostly Cloudy 39 3.9 26 -3.3 60 60 S 8 13 30.18 1022 10 16.09344 0 0
8:52 pm 20:52 Cloudy 40 4.4 26 -3.3 58 58 SSE 7 11 30.18 1022 10 16.09344 0 0
9:52 pm 21:52 Cloudy 38 3.3 26 -3.3 62 62 SSE 8 13 30.18 1022 10 16.09344 0 0
10:52 pm 22:52 Mostly Cloudy 37 2.8 28 -2.2 70 70 SSE 6 9 30.18 1022 10 16.09344 0 0
11:52 pm 23:52 Cloudy 38 3.3 29 -1.7 70 70 SSE 3 6 30.18 1022 10 16.09344 0 0

Powered by AerisWeather